Time,TemperatureF,DewpointF,PressureIn,WindDirection,WindDirectionDegrees,WindSpeedMPH,WindSpeedGustMPH,Humidity,HourlyPrecipIn,Conditions,Clouds,dailyrainin,SolarRadiationWatts/m^2,SoftwareType,DateUTC
2013-01-08 00:00:00,17.8,6.7,30.43,SSE,147,1.0,2.0,61,0.00,,,0.00,0,LWC V2.00 B727,2013-01-08 07:00:00,
2013-01-08 00:05:00,17.9,7.1,30.43,SSE,147,1.0,2.0,62,0.00,,,0.00,0,LWC V2.00 B727,2013-01-08 07:05:00,
2013-01-08 00:10:00,18.0,7.2,30.43,SSE,148,2.0,3.0,62,0.00,,,0.00,0,LWC V2.00 B727,2013-01-08 07:10:00,
2013-01-08 00:15:00,18.1,7.3,30.43,SSE,150,2.0,3.0,62,0.00,,,0.00,0,LWC V2.00 B727,2013-01-08 07:15:00,
2013-01-08 00:20:00,18.3,7.5,30.44,SSE,150,0.0,1.0,62,0.00,,,0.00,0,LWC V2.00 B727,2013-01-08 07:20:00,
2013-01-08 00:25:00,18.4,6.9,30.44,SSE,149,0.0,0.0,60,0.00,,,0.00,0,LWC V2.00 B727,2013-01-08 07:25:00,
2013-01-08 00:30:00,18.4,6.9,30.44,SSE,149,0.0,0.0,60,0.00,,,0.00,0,LWC V2.00 B727,2013-01-08 07:30:00,
2013-01-08 00:35:00,18.2,6.7,30.44,SSE,150,0.0,0.0,60,0.00,,,0.00,0,LWC V2.00 B727,2013-01-08 07:35:00,
2013-01-08 00:40:00,18.1,6.9,30.44,SSE,150,3.0,3.0,61,0.00,,,0.00,0,LWC V2.00 B727,2013-01-08 07:40:00,
2013-01-08 00:45:00,17.9,6.8,30.45,SSE,151,3.0,3.0,61,0.00,,,0.00,0,LWC V2.00 B727,2013-01-08 07:45:00,
2013-01-08 00:50:00,17.8,6.7,30.44,SSE,151,1.0,2.0,61,0.00,,,0.00,0,LWC V2.00 B727,2013-01-08 07:50:00,
2013-01-08 00:55:00,17.7,6.6,30.45,SSE,151,1.0,2.0,61,0.00,,,0.00,0,LWC V2.00 B727,2013-01-08 07:55:00,
2013-01-08 01:00:00,17.6,6.5,30.45,SSE,150,1.0,3.0,61,0.00,,,0.00,0,LWC V2.00 B727,2013-01-08 08:00:00,
2013-01-08 01:05:00,17.4,6.3,30.46,SSE,150,2.0,3.0,61,0.00,,,0.00,0,LWC V2.00 B727,2013-01-08 08:05:00,
2013-01-08 01:10:00,17.3,6.5,30.46,SSE,151,0.0,1.0,62,0.00,,,0.00,0,LWC V2.00 B727,2013-01-08 08:10:00,
2013-01-08 01:15:00,17.2,6.4,30.46,SSE,151,0.0,1.0,62,0.00,,,0.00,0,LWC V2.00 B727,2013-01-08 08:15:00,
2013-01-08 01:20:00,17.0,6.3,30.46,SSE,150,0.0,2.0,62,0.00,,,0.00,0,LWC V2.00 B727,2013-01-08 08:20:00,
2013-01-08 01:25:00,16.7,5.6,30.46,SSE,150,1.0,3.0,61,0.00,,,0.00,0,LWC V2.00 B727,2013-01-08 08:25:00,
2013-01-08 01:30:00,16.5,5.4,30.46,SSE,151,0.0,2.0,61,0.00,,,0.00,0,LWC V2.00 B727,2013-01-08 08:30:00,
2013-01-08 01:35:00,16.3,5.2,30.46,SSE,150,1.0,1.0,61,0.00,,,0.00,0,LWC V2.00 B727,2013-01-08 08:35:00,
2013-01-08 01:40:00,16.1,5.4,30.46,SSE,151,0.0,2.0,62,0.00,,,0.00,0,LWC V2.00 B727,2013-01-08 08:40:00,
2013-01-08 01:45:00,15.9,5.6,30.46,SSE,151,0.0,1.0,63,0.00,,,0.00,0,LWC V2.00 B727,2013-01-08 08:45:00,
2013-01-08 01:50:00,15.9,6.2,30.46,SE,146,2.0,4.0,65,0.00,,,0.00,0,LWC V2.00 B727,2013-01-08 08:50:00,
2013-01-08 01:55:00,16.1,6.1,30.45,SSE,165,3.0,4.0,64,0.00,,,0.00,0,LWC V2.00 B727,2013-01-08 08:55:00,
2013-01-08 02:00:00,16.3,6.3,30.45,SSE,165,3.0,5.0,64,0.00,,,0.00,0,LWC V2.00 B727,2013-01-08 09:00:00,
2013-01-08 02:05:00,16.8,7.1,30.45,SSE,159,2.0,5.0,65,0.00,,,0.00,0,LWC V2.00 B727,2013-01-08 09:05:00,
2013-01-08 02:10:00,17.1,7.1,30.44,SSE,164,2.0,3.0,64,0.00,,,0.00,0,LWC V2.00 B727,2013-01-08 09:10:00,
2013-01-08 02:15:00,17.3,6.9,30.44,SSE,167,1.0,3.0,63,0.00,,,0.00,0,LWC V2.00 B727,2013-01-08 09:15:00,
2013-01-08 02:20:00,17.6,6.8,30.44,SSE,149,2.0,3.0,62,0.00,,,0.00,0,LWC V2.00 B727,2013-01-08 09:20:00,
2013-01-08 02:25:00,17.9,7.1,30.44,South,173,3.0,6.0,62,0.00,,,0.00,0,LWC V2.00 B727,2013-01-08 09:25:00,
2013-01-08 02:30:00,18.1,6.9,30.44,SE,137,0.0,2.0,61,0.00,,,0.00,0,LWC V2.00 B727,2013-01-08 09:30:00,
2013-01-08 02:35:00,18.1,6.2,30.44,SE,136,1.0,2.0,59,0.00,,,0.00,0,LWC V2.00 B727,2013-01-08 09:35:00,
2013-01-08 02:40:00,18.1,5.5,30.44,SE,135,0.0,2.0,57,0.00,,,0.00,0,LWC V2.00 B727,2013-01-08 09:40:00,
2013-01-08 02:45:00,18.1,5.5,30.44,SE,134,0.0,0.0,57,0.00,,,0.00,0,LWC V2.00 B727,2013-01-08 09:45:00,
2013-01-08 02:50:00,17.9,4.9,30.44,SE,138,2.0,4.0,56,0.00,,,0.00,0,LWC V2.00 B727,2013-01-08 09:50:00,
2013-01-08 02:55:00,18.0,5.0,30.44,South,180,2.0,5.0,56,0.00,,,0.00,0,LWC V2.00 B727,2013-01-08 09:55:00,
2013-01-08 03:00:00,17.9,4.9,30.43,South,180,3.0,5.0,56,0.00,,,0.00,0,LWC V2.00 B727,2013-01-08 10:00:00,
2013-01-08 03:05:00,17.8,4.8,30.43,SSE,164,2.0,4.0,56,0.00,,,0.00,0,LWC V2.00 B727,2013-01-08 10:05:00,
2013-01-08 03:10:00,17.9,4.9,30.43,SSE,161,0.0,3.0,56,0.00,,,0.00,0,LWC V2.00 B727,2013-01-08 10:10:00,
2013-01-08 03:15:00,17.9,4.9,30.43,South,179,1.0,3.0,56,0.00,,,0.00,0,LWC V2.00 B727,2013-01-08 10:15:00,
2013-01-08 03:20:00,17.7,4.3,30.43,South,178,2.0,2.0,55,0.00,,,0.00,0,LWC V2.00 B727,2013-01-08 10:20:00,
2013-01-08 03:25:00,17.4,4.4,30.43,SSE,153,0.0,1.0,56,0.00,,,0.00,0,LWC V2.00 B727,2013-01-08 10:25:00,
2013-01-08 03:30:00,17.1,4.1,30.43,SSE,153,0.0,2.0,56,0.00,,,0.00,0,LWC V2.00 B727,2013-01-08 10:30:00,
2013-01-08 03:35:00,16.9,4.3,30.43,SSE,155,2.0,3.0,57,0.00,,,0.00,0,LWC V2.00 B727,2013-01-08 10:35:00,
2013-01-08 03:40:00,16.8,4.6,30.43,SSE,152,3.0,4.0,58,0.00,,,0.00,0,LWC V2.00 B727,2013-01-08 10:40:00,
2013-01-08 03:45:00,16.9,4.7,30.43,South,171,2.0,4.0,58,0.00,,,0.00,0,LWC V2.00 B727,2013-01-08 10:45:00,
2013-01-08 03:50:00,17.0,4.0,30.43,South,172,2.0,4.0,56,0.00,,,0.00,0,LWC V2.00 B727,2013-01-08 10:50:00,
2013-01-08 03:53:00,17.0,4.0,30.44,SSE,165,3.0,4.0,56,0.00,,,0.00,0,LWC V2.00 B727,2013-01-08 10:53:00,
2013-01-08 03:58:00,17.0,4.0,30.44,SSE,160,2.0,5.0,56,0.00,,,0.00,0,LWC V2.00 B727,2013-01-08 10:58:00,
2013-01-08 04:03:00,17.0,3.7,30.44,SSE,166,2.0,4.0,55,0.00,,,0.00,0,LWC V2.00 B727,2013-01-08 11:03:00,
2013-01-08 04:08:00,17.0,3.7,30.44,SSE,163,2.0,4.0,55,0.00,,,0.00,0,LWC V2.00 B727,2013-01-08 11:08:00,
2013-01-08 04:13:00,16.9,3.2,30.44,SSE,165,2.0,2.0,54,0.00,,,0.00,0,LWC V2.00 B727,2013-01-08 11:13:00,
2013-01-08 04:18:00,16.8,3.1,30.44,SSE,165,3.0,3.0,54,0.00,,,0.00,0,LWC V2.00 B727,2013-01-08 11:18:00,
2013-01-08 04:23:00,16.8,3.5,30.44,SSE,166,5.0,6.0,55,0.00,,,0.00,0,LWC V2.00 B727,2013-01-08 11:23:00,
2013-01-08 04:28:00,16.6,3.7,30.44,South,171,3.0,3.0,56,0.00,,,0.00,0,LWC V2.00 B727,2013-01-08 11:28:00,
2013-01-08 04:33:00,16.5,3.6,30.44,South,169,0.0,1.0,56,0.00,,,0.00,0,LWC V2.00 B727,2013-01-08 11:33:00,
2013-01-08 04:38:00,16.4,3.1,30.45,South,170,0.0,0.0,55,0.00,,,0.00,0,LWC V2.00 B727,2013-01-08 11:38:00,
2013-01-08 04:43:00,16.1,2.0,30.44,South,169,0.0,0.0,53,0.00,,,0.00,0,LWC V2.00 B727,2013-01-08 11:43:00,
2013-01-08 04:48:00,15.9,1.4,30.44,South,169,2.0,2.0,52,0.00,,,0.00,0,LWC V2.00 B727,2013-01-08 11:48:00,
2013-01-08 04:53:00,15.6,2.3,30.44,South,169,3.0,4.0,55,0.00,,,0.00,0,LWC V2.00 B727,2013-01-08 11:53:00,
2013-01-08 04:58:00,15.2,2.4,30.44,South,169,2.0,3.0,56,0.00,,,0.00,0,LWC V2.00 B727,2013-01-08 11:58:00,
2013-01-08 05:03:00,15.1,2.6,30.44,SSE,147,2.0,3.0,57,0.00,,,0.00,0,LWC V2.00 B727,2013-01-08 12:03:00,
2013-01-08 05:08:00,15.2,3.1,30.44,SSE,156,1.0,2.0,58,0.00,,,0.00,0,LWC V2.00 B727,2013-01-08 12:08:00,
2013-01-08 05:13:00,15.3,2.8,30.43,SSE,162,3.0,4.0,57,0.00,,,0.00,0,LWC V2.00 B727,2013-01-08 12:13:00,
2013-01-08 05:18:00,15.3,2.8,30.43,SSE,166,2.0,5.0,57,0.00,,,0.00,0,LWC V2.00 B727,2013-01-08 12:18:00,
2013-01-08 05:23:00,15.7,2.4,30.43,South,175,4.0,5.0,55,0.00,,,0.00,0,LWC V2.00 B727,2013-01-08 12:23:00,
2013-01-08 05:28:00,16.0,2.3,30.43,South,178,3.0,3.0,54,0.00,,,0.00,0,LWC V2.00 B727,2013-01-08 12:28:00,
2013-01-08 05:33:00,16.0,1.9,30.44,South,178,3.0,4.0,53,0.00,,,0.00,0,LWC V2.00 B727,2013-01-08 12:33:00,
2013-01-08 05:38:00,16.0,1.9,30.44,South,178,2.0,4.0,53,0.00,,,0.00,0,LWC V2.00 B727,2013-01-08 12:38:00,
2013-01-08 05:43:00,15.9,1.8,30.44,South,178,3.0,4.0,53,0.00,,,0.00,0,LWC V2.00 B727,2013-01-08 12:43:00,
2013-01-08 05:48:00,15.7,2.0,30.44,South,178,3.0,5.0,54,0.00,,,0.00,0,LWC V2.00 B727,2013-01-08 12:48:00,
2013-01-08 05:53:00,15.5,1.9,30.44,South,183,3.0,5.0,54,0.00,,,0.00,0,LWC V2.00 B727,2013-01-08 12:53:00,
2013-01-08 05:58:00,15.5,2.3,30.44,South,173,4.0,4.0,55,0.00,,,0.00,0,LWC V2.00 B727,2013-01-08 12:58:00,
2013-01-08 06:03:00,15.4,2.9,30.44,SE,146,1.0,4.0,57,0.00,,,0.00,0,LWC V2.00 B727,2013-01-08 13:03:00,
2013-01-08 06:08:00,15.4,2.5,30.45,SSE,148,2.0,3.0,56,0.00,,,0.00,0,LWC V2.00 B727,2013-01-08 13:08:00,
2013-01-08 06:13:00,15.6,2.3,30.45,SSE,149,2.0,3.0,55,0.00,,,0.00,0,LWC V2.00 B727,2013-01-08 13:13:00,
2013-01-08 06:18:00,15.8,2.5,30.45,SSE,153,0.0,4.0,55,0.00,,,0.00,0,LWC V2.00 B727,2013-01-08 13:18:00,
2013-01-08 06:23:00,15.9,2.2,30.46,SSE,155,3.0,4.0,54,0.00,,,0.00,0,LWC V2.00 B727,2013-01-08 13:23:00,
2013-01-08 06:28:00,16.0,2.3,30.46,SE,146,0.0,3.0,54,0.00,,,0.00,0,LWC V2.00 B727,2013-01-08 13:28:00,
2013-01-08 06:33:00,16.1,2.4,30.46,SSE,148,1.0,3.0,54,0.00,,,0.00,0,LWC V2.00 B727,2013-01-08 13:33:00,
2013-01-08 06:38:00,16.2,2.5,30.47,SSE,149,1.0,4.0,54,0.00,,,0.00,0,LWC V2.00 B727,2013-01-08 13:38:00,
2013-01-08 06:43:00,16.3,2.6,30.46,SSE,154,3.0,4.0,54,0.00,,,0.00,0,LWC V2.00 B727,2013-01-08 13:43:00,
2013-01-08 06:48:00,16.4,2.3,30.46,SSE,159,2.0,4.0,53,0.00,,,0.00,0,LWC V2.00 B727,2013-01-08 13:48:00,
2013-01-08 06:53:00,16.5,2.4,30.47,South,177,4.0,5.0,53,0.00,,,0.00,0,LWC V2.00 B727,2013-01-08 13:53:00,
2013-01-08 06:58:00,16.5,2.4,30.46,South,177,5.0,6.0,53,0.00,,,0.00,0,LWC V2.00 B727,2013-01-08 13:58:00,
2013-01-08 07:03:00,16.4,2.3,30.47,South,173,2.0,8.0,53,0.00,,,0.00,0,LWC V2.00 B727,2013-01-08 14:03:00,
2013-01-08 07:08:00,16.3,2.2,30.46,South,182,4.0,6.0,53,0.00,,,0.00,0,LWC V2.00 B727,2013-01-08 14:08:00,
2013-01-08 07:13:00,16.2,2.1,30.47,South,183,1.0,4.0,53,0.00,,,0.00,5,LWC V2.00 B727,2013-01-08 14:13:00,
2013-01-08 07:18:00,16.2,2.1,30.46,South,183,2.0,3.0,53,0.00,,,0.00,7,LWC V2.00 B727,2013-01-08 14:18:00,
2013-01-08 07:23:00,16.2,2.1,30.47,South,183,2.0,4.0,53,0.00,,,0.00,9,LWC V2.00 B727,2013-01-08 14:23:00,
2013-01-08 07:28:00,16.3,2.2,30.47,South,183,4.0,5.0,53,0.00,,,0.00,11,LWC V2.00 B727,2013-01-08 14:28:00,
2013-01-08 07:33:00,16.5,2.0,30.47,South,184,5.0,6.0,52,0.00,,,0.00,12,LWC V2.00 B727,2013-01-08 14:33:00,
2013-01-08 07:38:00,16.7,2.2,30.47,South,181,3.0,4.0,52,0.00,,,0.00,14,LWC V2.00 B727,2013-01-08 14:38:00,
2013-01-08 07:43:00,16.8,2.3,30.48,SSE,152,0.0,2.0,52,0.00,,,0.00,14,LWC V2.00 B727,2013-01-08 14:43:00,
2013-01-08 07:48:00,17.0,2.0,30.48,SSE,160,0.0,2.0,51,0.00,,,0.00,63,LWC V2.00 B727,2013-01-08 14:48:00,
2013-01-08 07:53:00,17.1,2.1,30.48,SSE,161,2.0,3.0,51,0.00,,,0.00,104,LWC V2.00 B727,2013-01-08 14:53:00,
2013-01-08 07:58:00,17.3,2.3,30.49,SSE,161,0.0,3.0,51,0.00,,,0.00,123,LWC V2.00 B727,2013-01-08 14:58:00,
2013-01-08 08:03:00,17.5,2.5,30.50,SSE,161,1.0,2.0,51,0.00,,,0.00,146,LWC V2.00 B727,2013-01-08 15:03:00,
2013-01-08 08:08:00,17.8,2.3,30.50,SSE,162,1.0,3.0,50,0.00,,,0.00,102,LWC V2.00 B727,2013-01-08 15:08:00,
2013-01-08 08:13:00,18.3,2.4,30.51,SSE,161,1.0,3.0,49,0.00,,,0.00,146,LWC V2.00 B727,2013-01-08 15:13:00,
2013-01-08 08:18:00,18.7,3.2,30.51,SSE,154,2.0,3.0,50,0.00,,,0.00,190,LWC V2.00 B727,2013-01-08 15:18:00,
2013-01-08 08:23:00,19.3,3.7,30.51,SSE,149,3.0,5.0,50,0.00,,,0.00,227,LWC V2.00 B727,2013-01-08 15:23:00,
2013-01-08 08:28:00,19.9,3.9,30.51,SSE,148,3.0,4.0,49,0.00,,,0.00,255,LWC V2.00 B727,2013-01-08 15:28:00,
2013-01-08 08:33:00,20.7,4.6,30.51,SSE,150,3.0,4.0,49,0.00,,,0.00,272,LWC V2.00 B727,2013-01-08 15:33:00,
2013-01-08 08:38:00,21.4,5.2,30.51,SSE,151,3.0,3.0,49,0.00,,,0.00,148,LWC V2.00 B727,2013-01-08 15:38:00,
2013-01-08 08:43:00,22.0,5.8,30.51,SSE,155,2.0,4.0,49,0.00,,,0.00,304,LWC V2.00 B727,2013-01-08 15:43:00,
2013-01-08 08:48:00,22.6,5.9,30.51,SSE,155,3.0,3.0,48,0.00,,,0.00,323,LWC V2.00 B727,2013-01-08 15:48:00,
2013-01-08 08:53:00,23.1,6.4,30.52,SSE,155,2.0,2.0,48,0.00,,,0.00,336,LWC V2.00 B727,2013-01-08 15:53:00,
2013-01-08 08:58:00,23.7,6.5,30.52,SSE,155,1.0,3.0,47,0.00,,,0.00,353,LWC V2.00 B727,2013-01-08 15:58:00,
2013-01-08 09:03:00,24.4,6.1,30.53,SSE,155,0.0,1.0,45,0.00,,,0.00,369,LWC V2.00 B727,2013-01-08 16:03:00,
2013-01-08 09:08:00,25.1,6.8,30.53,SSE,155,0.0,1.0,45,0.00,,,0.00,385,LWC V2.00 B727,2013-01-08 16:08:00,
2013-01-08 09:13:00,25.6,6.7,30.53,SSE,155,0.0,1.0,44,0.00,,,0.00,401,LWC V2.00 B727,2013-01-08 16:13:00,
2013-01-08 09:18:00,26.3,7.4,30.53,SSE,155,0.0,0.0,44,0.00,,,0.00,417,LWC V2.00 B727,2013-01-08 16:18:00,
2013-01-08 09:23:00,27.4,7.4,30.53,SSE,155,0.0,0.0,42,0.00,,,0.00,431,LWC V2.00 B727,2013-01-08 16:23:00,
2013-01-08 09:28:00,28.3,8.7,30.53,SSE,155,0.0,1.0,43,0.00,,,0.00,445,LWC V2.00 B727,2013-01-08 16:28:00,
2013-01-08 09:33:00,29.0,8.3,30.53,SSE,155,0.0,0.0,41,0.00,,,0.00,459,LWC V2.00 B727,2013-01-08 16:33:00,
2013-01-08 09:38:00,29.7,8.4,30.53,SSE,155,0.0,1.0,40,0.00,,,0.00,473,LWC V2.00 B727,2013-01-08 16:38:00,
2013-01-08 09:43:00,30.5,9.1,30.53,SSE,155,0.0,1.0,40,0.00,,,0.00,485,LWC V2.00 B727,2013-01-08 16:43:00,
2013-01-08 09:48:00,31.4,8.8,30.53,SSE,155,0.0,3.0,38,0.00,,,0.00,497,LWC V2.00 B727,2013-01-08 16:48:00,
2013-01-08 09:53:00,32.1,8.8,30.53,SSE,155,0.0,2.0,37,0.00,,,0.00,510,LWC V2.00 B727,2013-01-08 16:53:00,
2013-01-08 09:58:00,32.9,10.1,30.52,SSE,155,0.0,1.0,38,0.00,,,0.00,519,LWC V2.00 B727,2013-01-08 16:58:00,
2013-01-08 10:03:00,33.7,9.6,30.53,SSE,155,0.0,0.0,36,0.00,,,0.00,531,LWC V2.00 B727,2013-01-08 17:03:00,
2013-01-08 10:08:00,34.4,9.0,30.53,SSE,155,0.0,0.0,34,0.00,,,0.00,543,LWC V2.00 B727,2013-01-08 17:08:00,
2013-01-08 10:13:00,35.1,10.2,30.52,NNE,14,1.0,4.0,35,0.00,,,0.00,550,LWC V2.00 B727,2013-01-08 17:13:00,
2013-01-08 10:18:00,35.1,10.9,30.52,North,10,2.0,3.0,36,0.00,,,0.00,561,LWC V2.00 B727,2013-01-08 17:18:00,
2013-01-08 10:23:00,35.0,11.4,30.52,North,10,0.0,0.0,37,0.00,,,0.00,570,LWC V2.00 B727,2013-01-08 17:23:00,
2013-01-08 10:28:00,34.8,12.4,30.52,North,10,0.0,0.0,39,0.00,,,0.00,580,LWC V2.00 B727,2013-01-08 17:28:00,
2013-01-08 10:33:00,34.1,12.9,30.52,North,10,0.0,0.0,41,0.00,,,0.00,589,LWC V2.00 B727,2013-01-08 17:33:00,
2013-01-08 10:38:00,33.5,15.0,30.51,North,10,0.0,1.0,46,0.00,,,0.00,596,LWC V2.00 B727,2013-01-08 17:38:00,
2013-01-08 10:43:00,33.6,12.4,30.50,North,10,0.0,0.0,41,0.00,,,0.00,603,LWC V2.00 B727,2013-01-08 17:43:00,
2013-01-08 10:48:00,34.1,15.0,30.50,North,11,0.0,1.0,45,0.00,,,0.00,613,LWC V2.00 B727,2013-01-08 17:48:00,
2013-01-08 10:53:00,34.2,16.1,30.50,North,11,0.0,2.0,47,0.00,,,0.00,622,LWC V2.00 B727,2013-01-08 17:53:00,
2013-01-08 10:58:00,34.2,15.1,30.49,North,11,0.0,1.0,45,0.00,,,0.00,622,LWC V2.00 B727,2013-01-08 17:58:00,
2013-01-08 11:03:00,34.4,14.8,30.49,North,10,1.0,4.0,44,0.00,,,0.00,628,LWC V2.00 B727,2013-01-08 18:03:00,
2013-01-08 11:08:00,35.1,14.3,30.49,North,11,3.0,5.0,42,0.00,,,0.00,638,LWC V2.00 B727,2013-01-08 18:08:00,
2013-01-08 11:13:00,35.9,12.8,30.48,North,5,2.0,2.0,38,0.00,,,0.00,642,LWC V2.00 B727,2013-01-08 18:13:00,
2013-01-08 11:18:00,36.9,14.3,30.48,North,0,3.0,5.0,39,0.00,,,0.00,647,LWC V2.00 B727,2013-01-08 18:18:00,
2013-01-08 11:23:00,37.8,13.3,30.47,North,0,1.0,1.0,36,0.00,,,0.00,654,LWC V2.00 B727,2013-01-08 18:23:00,
2013-01-08 11:28:00,38.8,14.8,30.47,North,350,1.0,4.0,37,0.00,,,0.00,659,LWC V2.00 B727,2013-01-08 18:28:00,
2013-01-08 11:33:00,39.2,13.9,30.47,North,355,3.0,7.0,35,0.00,,,0.00,661,LWC V2.00 B727,2013-01-08 18:33:00,
2013-01-08 11:38:00,38.9,14.2,30.47,WSW,246,1.0,5.0,36,0.00,,,0.00,663,LWC V2.00 B727,2013-01-08 18:38:00,
2013-01-08 11:43:00,38.7,13.4,30.47,NNW,345,0.0,5.0,35,0.00,,,0.00,668,LWC V2.00 B727,2013-01-08 18:43:00,
2013-01-08 11:48:00,38.9,14.2,30.47,West,267,0.0,1.0,36,0.00,,,0.00,670,LWC V2.00 B727,2013-01-08 18:48:00,
2013-01-08 11:53:00,39.5,12.8,30.47,North,355,0.0,4.0,33,0.00,,,0.00,671,LWC V2.00 B727,2013-01-08 18:53:00,
2013-01-08 11:58:00,40.1,13.3,30.48,West,259,3.0,5.0,33,0.00,,,0.00,671,LWC V2.00 B727,2013-01-08 18:58:00,
2013-01-08 12:03:00,40.3,12.1,30.48,SW,219,2.0,2.0,31,0.00,,,0.00,673,LWC V2.00 B727,2013-01-08 19:03:00,
2013-01-08 12:08:00,40.3,12.8,30.48,SW,229,1.0,7.0,32,0.00,,,0.00,673,LWC V2.00 B727,2013-01-08 19:08:00,
2013-01-08 12:13:00,40.1,13.3,30.48,WSW,250,1.0,6.0,33,0.00,,,0.00,670,LWC V2.00 B727,2013-01-08 19:13:00,
2013-01-08 12:18:00,39.9,12.5,30.47,SW,226,3.0,4.0,32,0.00,,,0.00,673,LWC V2.00 B727,2013-01-08 19:18:00,
2013-01-08 12:23:00,40.2,13.4,30.47,SSW,205,3.0,6.0,33,0.00,,,0.00,668,LWC V2.00 B727,2013-01-08 19:23:00,
2013-01-08 12:28:00,40.4,11.4,30.46,WSW,240,2.0,5.0,30,0.00,,,0.00,673,LWC V2.00 B727,2013-01-08 19:28:00,
2013-01-08 12:33:00,41.0,14.8,30.46,SE,140,1.0,3.0,34,0.00,,,0.00,659,LWC V2.00 B727,2013-01-08 19:33:00,
2013-01-08 12:38:00,41.2,15.0,30.45,ESE,117,1.0,3.0,34,0.00,,,0.00,670,LWC V2.00 B727,2013-01-08 19:38:00,
2013-01-08 12:43:00,41.0,14.8,30.45,SSE,153,3.0,5.0,34,0.00,,,0.00,631,LWC V2.00 B727,2013-01-08 19:43:00,
2013-01-08 12:48:00,41.1,14.2,30.45,SSE,159,2.0,4.0,33,0.00,,,0.00,605,LWC V2.00 B727,2013-01-08 19:48:00,
2013-01-08 12:53:00,41.1,14.2,30.45,South,171,4.0,4.0,33,0.00,,,0.00,650,LWC V2.00 B727,2013-01-08 19:53:00,
2013-01-08 12:58:00,41.5,14.6,30.45,SW,223,1.0,4.0,33,0.00,,,0.00,629,LWC V2.00 B727,2013-01-08 19:58:00,
2013-01-08 13:03:00,42.0,14.3,30.45,South,186,0.0,3.0,32,0.00,,,0.00,645,LWC V2.00 B727,2013-01-08 20:03:00,
2013-01-08 13:08:00,42.7,14.2,30.46,South,188,0.0,5.0,31,0.00,,,0.00,626,LWC V2.00 B727,2013-01-08 20:08:00,
2013-01-08 13:13:00,43.5,12.6,30.46,South,188,4.0,4.0,28,0.00,,,0.00,638,LWC V2.00 B727,2013-01-08 20:13:00,
2013-01-08 13:18:00,44.2,14.8,30.45,South,188,1.0,2.0,30,0.00,,,0.00,628,LWC V2.00 B727,2013-01-08 20:18:00,
2013-01-08 13:23:00,45.1,14.8,30.46,South,188,0.0,0.0,29,0.00,,,0.00,617,LWC V2.00 B727,2013-01-08 20:23:00,
2013-01-08 13:28:00,45.5,15.9,30.46,SW,236,2.0,5.0,30,0.00,,,0.00,617,LWC V2.00 B727,2013-01-08 20:28:00,
2013-01-08 13:33:00,45.7,15.3,30.46,North,349,2.0,5.0,29,0.00,,,0.00,613,LWC V2.00 B727,2013-01-08 20:33:00,
2013-01-08 13:38:00,45.5,15.9,30.46,SW,222,2.0,5.0,30,0.00,,,0.00,603,LWC V2.00 B727,2013-01-08 20:38:00,
2013-01-08 13:43:00,45.4,15.8,30.46,WSW,244,3.0,8.0,30,0.00,,,0.00,598,LWC V2.00 B727,2013-01-08 20:43:00,
2013-01-08 13:48:00,45.2,15.6,30.46,WSW,238,1.0,6.0,30,0.00,,,0.00,589,LWC V2.00 B727,2013-01-08 20:48:00,
2013-01-08 13:54:00,45.0,15.5,30.47,WSW,255,6.0,6.0,30,0.00,,,0.00,578,LWC V2.00 B727,2013-01-08 20:54:00,
2013-01-08 13:59:00,44.7,15.9,30.47,NW,314,2.0,6.0,31,0.00,,,0.00,575,LWC V2.00 B727,2013-01-08 20:59:00,
2013-01-08 14:04:00,44.7,16.7,30.47,WSW,250,4.0,5.0,32,0.00,,,0.00,555,LWC V2.00 B727,2013-01-08 21:04:00,
2013-01-08 14:09:00,45.0,16.9,30.47,SW,233,4.0,8.0,32,0.00,,,0.00,552,LWC V2.00 B727,2013-01-08 21:09:00,
2013-01-08 14:14:00,45.0,16.9,30.47,North,355,6.0,8.0,32,0.00,,,0.00,445,LWC V2.00 B727,2013-01-08 21:14:00,
2013-01-08 14:19:00,45.0,16.9,30.47,NNW,341,7.0,8.0,32,0.00,,,0.00,424,LWC V2.00 B727,2013-01-08 21:19:00,
2013-01-08 14:24:00,44.5,17.2,30.47,North,350,7.0,7.0,33,0.00,,,0.00,492,LWC V2.00 B727,2013-01-08 21:24:00,
2013-01-08 14:29:00,44.2,16.9,30.47,North,5,7.0,9.0,33,0.00,,,0.00,497,LWC V2.00 B727,2013-01-08 21:29:00,
2013-01-08 14:34:00,43.9,17.4,30.48,NNW,342,6.0,7.0,34,0.00,,,0.00,494,LWC V2.00 B727,2013-01-08 21:34:00,
2013-01-08 14:39:00,44.0,18.1,30.48,NNE,13,4.0,5.0,35,0.00,,,0.00,485,LWC V2.00 B727,2013-01-08 21:39:00,
2013-01-08 14:44:00,44.0,16.1,30.49,North,351,4.0,10.0,32,0.00,,,0.00,473,LWC V2.00 B727,2013-01-08 21:44:00,
2013-01-08 14:49:00,43.7,15.8,30.49,North,355,4.0,6.0,32,0.00,,,0.00,461,LWC V2.00 B727,2013-01-08 21:49:00,
2013-01-08 14:54:00,43.5,15.6,30.49,North,350,4.0,7.0,32,0.00,,,0.00,445,LWC V2.00 B727,2013-01-08 21:54:00,
2013-01-08 14:59:00,43.4,15.5,30.50,North,0,3.0,5.0,32,0.00,,,0.00,422,LWC V2.00 B727,2013-01-08 21:59:00,
2013-01-08 15:04:00,43.4,15.5,30.50,NNW,348,3.0,6.0,32,0.00,,,0.00,418,LWC V2.00 B727,2013-01-08 22:04:00,
2013-01-08 15:09:00,43.4,16.2,30.50,North,5,3.0,4.0,33,0.00,,,0.00,404,LWC V2.00 B727,2013-01-08 22:09:00,
2013-01-08 15:14:00,43.5,16.3,30.50,NNE,17,1.0,5.0,33,0.00,,,0.00,385,LWC V2.00 B727,2013-01-08 22:14:00,
2013-01-08 15:19:00,43.6,15.7,30.51,NNE,18,2.0,6.0,32,0.00,,,0.00,385,LWC V2.00 B727,2013-01-08 22:19:00,
2013-01-08 15:24:00,43.4,16.2,30.51,NNE,19,0.0,4.0,33,0.00,,,0.00,360,LWC V2.00 B727,2013-01-08 22:24:00,
2013-01-08 15:29:00,43.4,16.9,30.51,NNW,330,1.0,2.0,34,0.00,,,0.00,336,LWC V2.00 B727,2013-01-08 22:29:00,
2013-01-08 15:34:00,43.4,15.5,30.51,North,10,3.0,4.0,32,0.00,,,0.00,339,LWC V2.00 B727,2013-01-08 22:34:00,
2013-01-08 15:39:00,43.2,15.4,30.52,North,9,0.0,2.0,32,0.00,,,0.00,253,LWC V2.00 B727,2013-01-08 22:39:00,
2013-01-08 15:44:00,43.1,17.3,30.52,North,9,0.0,0.0,35,0.00,,,0.00,206,LWC V2.00 B727,2013-01-08 22:44:00,
2013-01-08 15:49:00,42.6,17.5,30.52,ENE,75,0.0,2.0,36,0.00,,,0.00,244,LWC V2.00 B727,2013-01-08 22:49:00,
2013-01-08 15:54:00,42.2,17.2,30.53,SSE,164,0.0,3.0,36,0.00,,,0.00,174,LWC V2.00 B727,2013-01-08 22:54:00,
2013-01-08 15:59:00,41.8,16.2,30.53,SSE,166,0.0,1.0,35,0.00,,,0.00,134,LWC V2.00 B727,2013-01-08 22:59:00,
2013-01-08 16:04:00,41.5,15.9,30.53,South,176,2.0,3.0,35,0.00,,,0.00,60,LWC V2.00 B727,2013-01-08 23:04:00,
2013-01-08 16:09:00,40.9,16.0,30.53,South,180,0.0,2.0,36,0.00,,,0.00,44,LWC V2.00 B727,2013-01-08 23:09:00,
2013-01-08 16:14:00,40.2,16.0,30.54,South,190,2.0,4.0,37,0.00,,,0.00,32,LWC V2.00 B727,2013-01-08 23:14:00,
2013-01-08 16:19:00,39.6,16.1,30.54,South,184,2.0,3.0,38,0.00,,,0.00,26,LWC V2.00 B727,2013-01-08 23:19:00,
2013-01-08 16:24:00,38.9,15.5,30.54,South,180,2.0,3.0,38,0.00,,,0.00,26,LWC V2.00 B727,2013-01-08 23:24:00,
2013-01-08 16:29:00,38.3,15.5,30.54,South,180,1.0,3.0,39,0.00,,,0.00,26,LWC V2.00 B727,2013-01-08 23:29:00,
2013-01-08 16:34:00,37.7,15.6,30.54,South,190,2.0,6.0,40,0.00,,,0.00,26,LWC V2.00 B727,2013-01-08 23:34:00,
2013-01-08 16:39:00,37.0,15.5,30.54,South,175,1.0,4.0,41,0.00,,,0.00,25,LWC V2.00 B727,2013-01-08 23:39:00,
2013-01-08 16:44:00,36.5,15.1,30.54,SSE,163,2.0,3.0,41,0.00,,,0.00,21,LWC V2.00 B727,2013-01-08 23:44:00,
2013-01-08 16:49:00,36.0,15.2,30.55,SSE,155,0.0,3.0,42,0.00,,,0.00,18,LWC V2.00 B727,2013-01-08 23:49:00,
2013-01-08 16:54:00,35.4,15.7,30.55,SSE,156,2.0,3.0,44,0.00,,,0.00,12,LWC V2.00 B727,2013-01-08 23:54:00,
2013-01-08 16:59:00,34.4,14.8,30.55,South,175,3.0,4.0,44,0.00,,,0.00,9,LWC V2.00 B727,2013-01-08 23:59:00,
2013-01-08 17:04:00,33.5,14.5,30.55,SSE,167,3.0,4.0,45,0.00,,,0.00,5,LWC V2.00 B727,2013-01-09 00:04:00,
2013-01-08 17:09:00,32.6,14.1,30.55,SSE,159,2.0,3.0,46,0.00,,,0.00,0,LWC V2.00 B727,2013-01-09 00:09:00,
2013-01-08 17:14:00,31.9,14.0,30.56,SSE,156,1.0,3.0,47,0.00,,,0.00,0,LWC V2.00 B727,2013-01-09 00:14:00,
2013-01-08 17:19:00,31.3,13.4,30.56,SE,142,1.0,2.0,47,0.00,,,0.00,0,LWC V2.00 B727,2013-01-09 00:19:00,
2013-01-08 17:24:00,30.6,13.3,30.56,SSE,149,0.0,3.0,48,0.00,,,0.00,0,LWC V2.00 B727,2013-01-09 00:24:00,
2013-01-08 17:29:00,30.2,13.4,30.57,SSE,164,1.0,2.0,49,0.00,,,0.00,0,LWC V2.00 B727,2013-01-09 00:29:00,
2013-01-08 17:34:00,29.9,13.5,30.57,SSE,165,1.0,3.0,50,0.00,,,0.00,0,LWC V2.00 B727,2013-01-09 00:34:00,
2013-01-08 17:39:00,29.6,13.3,30.57,South,183,1.0,3.0,50,0.00,,,0.00,0,LWC V2.00 B727,2013-01-09 00:39:00,
2013-01-08 17:44:00,29.3,13.0,30.57,SSE,165,4.0,4.0,50,0.00,,,0.00,0,LWC V2.00 B727,2013-01-09 00:44:00,
2013-01-08 17:49:00,29.2,13.4,30.57,SSE,161,2.0,3.0,51,0.00,,,0.00,0,LWC V2.00 B727,2013-01-09 00:49:00,
2013-01-08 17:54:00,29.2,13.4,30.58,SSE,162,2.0,3.0,51,0.00,,,0.00,0,LWC V2.00 B727,2013-01-09 00:54:00,
2013-01-08 17:59:00,29.0,13.6,30.58,SSE,161,2.0,3.0,52,0.00,,,0.00,0,LWC V2.00 B727,2013-01-09 00:59:00,
2013-01-08 18:04:00,28.8,13.0,30.58,SSE,162,0.0,2.0,51,0.00,,,0.00,0,LWC V2.00 B727,2013-01-09 01:04:00,
2013-01-08 18:09:00,28.5,12.7,30.59,SSE,162,0.0,0.0,51,0.00,,,0.00,0,LWC V2.00 B727,2013-01-09 01:09:00,
2013-01-08 18:14:00,28.1,11.4,30.59,SSE,162,0.0,0.0,49,0.00,,,0.00,0,LWC V2.00 B727,2013-01-09 01:14:00,
2013-01-08 18:19:00,27.6,11.4,30.59,SSE,161,0.0,0.0,50,0.00,,,0.00,0,LWC V2.00 B727,2013-01-09 01:19:00,
2013-01-08 18:24:00,27.2,11.1,30.59,SSE,162,0.0,0.0,50,0.00,,,0.00,0,LWC V2.00 B727,2013-01-09 01:24:00,
2013-01-08 18:29:00,26.5,10.4,30.59,SSE,161,0.0,0.0,50,0.00,,,0.00,0,LWC V2.00 B727,2013-01-09 01:29:00,
2013-01-08 18:34:00,25.6,10.0,30.59,SSE,161,1.0,1.0,51,0.00,,,0.00,0,LWC V2.00 B727,2013-01-09 01:34:00,
2013-01-08 18:39:00,24.9,10.6,30.60,SSE,162,1.0,1.0,54,0.00,,,0.00,0,LWC V2.00 B727,2013-01-09 01:39:00,
2013-01-08 18:44:00,24.3,10.5,30.60,SSE,162,0.0,0.0,55,0.00,,,0.00,0,LWC V2.00 B727,2013-01-09 01:44:00,
2013-01-08 18:49:00,23.5,8.9,30.60,SSE,162,0.0,0.0,53,0.00,,,0.00,0,LWC V2.00 B727,2013-01-09 01:49:00,
2013-01-08 18:54:00,23.0,10.1,30.60,SSE,163,3.0,3.0,57,0.00,,,0.00,0,LWC V2.00 B727,2013-01-09 01:54:00,
2013-01-08 18:59:00,22.7,10.2,30.61,SSE,163,0.0,1.0,58,0.00,,,0.00,0,LWC V2.00 B727,2013-01-09 01:59:00,
2013-01-08 19:04:00,22.6,10.1,30.61,SSE,163,0.0,0.0,58,0.00,,,0.00,0,LWC V2.00 B727,2013-01-09 02:04:00,
2013-01-08 19:09:00,22.5,10.4,30.61,SSE,163,0.0,1.0,59,0.00,,,0.00,0,LWC V2.00 B727,2013-01-09 02:09:00,
2013-01-08 19:14:00,22.5,10.4,30.61,SSE,163,0.0,0.0,59,0.00,,,0.00,0,LWC V2.00 B727,2013-01-09 02:14:00,
2013-01-08 19:19:00,22.4,10.3,30.61,SSE,163,0.0,2.0,59,0.00,,,0.00,0,LWC V2.00 B727,2013-01-09 02:19:00,
2013-01-08 19:24:00,22.2,10.1,30.62,SSE,163,1.0,2.0,59,0.00,,,0.00,0,LWC V2.00 B727,2013-01-09 02:24:00,
2013-01-08 19:29:00,22.2,10.1,30.62,South,171,3.0,5.0,59,0.00,,,0.00,0,LWC V2.00 B727,2013-01-09 02:29:00,
2013-01-08 19:34:00,22.2,10.5,30.62,South,183,3.0,5.0,60,0.00,,,0.00,0,LWC V2.00 B727,2013-01-09 02:34:00,
2013-01-08 19:39:00,22.2,10.1,30.62,South,185,1.0,2.0,59,0.00,,,0.00,0,LWC V2.00 B727,2013-01-09 02:39:00,
2013-01-08 19:44:00,22.3,9.8,30.63,South,184,0.0,3.0,58,0.00,,,0.00,0,LWC V2.00 B727,2013-01-09 02:44:00,
2013-01-08 19:49:00,22.3,9.4,30.63,South,185,2.0,2.0,57,0.00,,,0.00,0,LWC V2.00 B727,2013-01-09 02:49:00,
2013-01-08 19:54:00,22.2,8.9,30.63,South,185,0.0,2.0,56,0.00,,,0.00,0,LWC V2.00 B727,2013-01-09 02:54:00,
2013-01-08 19:59:00,21.9,8.6,30.63,South,184,3.0,3.0,56,0.00,,,0.00,0,LWC V2.00 B727,2013-01-09 02:59:00,
2013-01-08 20:04:00,21.8,8.5,30.63,South,185,3.0,3.0,56,0.00,,,0.00,0,LWC V2.00 B727,2013-01-09 03:04:00,
2013-01-08 20:09:00,21.9,9.0,30.64,South,182,3.0,6.0,57,0.00,,,0.00,0,LWC V2.00 B727,2013-01-09 03:09:00,
2013-01-08 20:14:00,22.2,8.5,30.64,South,186,4.0,4.0,55,0.00,,,0.00,0,LWC V2.00 B727,2013-01-09 03:14:00,
2013-01-08 20:19:00,22.5,8.4,30.64,South,171,0.0,2.0,54,0.00,,,0.00,0,LWC V2.00 B727,2013-01-09 03:19:00,
2013-01-08 20:24:00,22.9,8.8,30.64,South,171,3.0,4.0,54,0.00,,,0.00,0,LWC V2.00 B727,2013-01-09 03:24:00,
2013-01-08 20:29:00,23.1,9.4,30.65,South,183,4.0,6.0,55,0.00,,,0.00,0,LWC V2.00 B727,2013-01-09 03:29:00,
2013-01-08 20:34:00,23.2,9.1,30.65,South,184,3.0,4.0,54,0.00,,,0.00,0,LWC V2.00 B727,2013-01-09 03:34:00,
2013-01-08 20:39:00,23.2,9.1,30.66,South,180,3.0,3.0,54,0.00,,,0.00,0,LWC V2.00 B727,2013-01-09 03:39:00,
2013-01-08 20:44:00,23.2,9.1,30.66,South,180,2.0,3.0,54,0.00,,,0.00,0,LWC V2.00 B727,2013-01-09 03:44:00,
2013-01-08 20:49:00,23.2,8.6,30.66,South,180,2.0,4.0,53,0.00,,,0.00,0,LWC V2.00 B727,2013-01-09 03:49:00,
2013-01-08 20:54:00,23.2,8.6,30.66,South,180,0.0,1.0,53,0.00,,,0.00,0,LWC V2.00 B727,2013-01-09 03:54:00,
2013-01-08 20:59:00,23.2,8.6,30.66,South,180,0.0,0.0,53,0.00,,,0.00,0,LWC V2.00 B727,2013-01-09 03:59:00,
2013-01-08 21:04:00,23.0,7.2,30.67,South,180,0.0,0.0,50,0.00,,,0.00,0,LWC V2.00 B727,2013-01-09 04:04:00,
2013-01-08 21:09:00,22.7,6.9,30.67,South,180,4.0,5.0,50,0.00,,,0.00,0,LWC V2.00 B727,2013-01-09 04:09:00,
2013-01-08 21:14:00,22.6,7.7,30.67,SSE,165,0.0,3.0,52,0.00,,,0.00,0,LWC V2.00 B727,2013-01-09 04:14:00,
2013-01-08 21:19:00,22.6,8.1,30.67,SSE,164,3.0,4.0,53,0.00,,,0.00,0,LWC V2.00 B727,2013-01-09 04:19:00,
2013-01-08 21:24:00,22.7,7.8,30.68,SSE,165,1.0,4.0,52,0.00,,,0.00,0,LWC V2.00 B727,2013-01-09 04:24:00,
2013-01-08 21:29:00,23.0,8.0,30.68,SSE,167,1.0,3.0,52,0.00,,,0.00,0,LWC V2.00 B727,2013-01-09 04:29:00,
2013-01-08 21:34:00,23.2,8.2,30.68,SSE,167,1.0,2.0,52,0.00,,,0.00,0,LWC V2.00 B727,2013-01-09 04:34:00,
2013-01-08 21:39:00,23.4,8.4,30.69,SSE,167,1.0,2.0,52,0.00,,,0.00,0,LWC V2.00 B727,2013-01-09 04:39:00,
2013-01-08 21:44:00,23.4,8.0,30.69,SSE,167,2.0,2.0,51,0.00,,,0.00,0,LWC V2.00 B727,2013-01-09 04:44:00,
2013-01-08 21:49:00,23.4,8.0,30.69,SSE,167,3.0,3.0,51,0.00,,,0.00,0,LWC V2.00 B727,2013-01-09 04:49:00,
2013-01-08 21:54:00,23.3,7.4,30.69,SSE,167,1.0,1.0,50,0.00,,,0.00,0,LWC V2.00 B727,2013-01-09 04:54:00,
2013-01-08 21:59:00,23.1,7.7,30.69,SSE,167,0.0,2.0,51,0.00,,,0.00,0,LWC V2.00 B727,2013-01-09 04:59:00,
2013-01-08 22:00:00,23.1,7.7,30.69,SSE,167,0.0,2.0,51,0.00,,,0.00,0,LWC V2.00 B727,2013-01-09 05:00:00,
2013-01-08 22:01:00,23.0,7.2,30.69,SSE,167,0.0,1.0,50,0.00,,,0.00,0,LWC V2.00 B727,2013-01-09 05:01:00,
2013-01-08 22:06:00,22.9,7.5,30.69,SSE,167,2.0,2.0,51,0.00,,,0.00,0,LWC V2.00 B727,2013-01-09 05:06:00,
2013-01-08 22:11:00,23.1,7.7,30.69,South,176,4.0,5.0,51,0.00,,,0.00,0,LWC V2.00 B727,2013-01-09 05:11:00,
2013-01-08 22:16:00,23.3,7.9,30.69,South,173,0.0,2.0,51,0.00,,,0.00,0,LWC V2.00 B727,2013-01-09 05:16:00,
2013-01-08 22:21:00,23.7,7.8,30.70,East,91,1.0,2.0,50,0.00,,,0.00,0,LWC V2.00 B727,2013-01-09 05:21:00,
2013-01-08 22:26:00,24.9,8.5,30.70,East,101,0.0,3.0,49,0.00,,,0.00,0,LWC V2.00 B727,2013-01-09 05:26:00,
2013-01-08 22:31:00,25.5,8.6,30.70,ESE,107,2.0,4.0,48,0.00,,,0.00,0,LWC V2.00 B727,2013-01-09 05:31:00,
2013-01-08 22:36:00,25.6,8.2,30.71,ESE,114,3.0,4.0,47,0.00,,,0.00,0,LWC V2.00 B727,2013-01-09 05:36:00,
2013-01-08 22:41:00,25.3,8.4,30.71,SSW,207,2.0,5.0,48,0.00,,,0.00,0,LWC V2.00 B727,2013-01-09 05:41:00,
2013-01-08 22:46:00,24.9,8.0,30.71,SSW,207,0.0,2.0,48,0.00,,,0.00,0,LWC V2.00 B727,2013-01-09 05:46:00,
2013-01-08 22:51:00,24.7,7.8,30.71,SSE,159,0.0,2.0,48,0.00,,,0.00,0,LWC V2.00 B727,2013-01-09 05:51:00,
2013-01-08 22:56:00,24.3,7.9,30.71,SSE,160,2.0,3.0,49,0.00,,,0.00,0,LWC V2.00 B727,2013-01-09 05:56:00,
2013-01-08 23:01:00,23.9,8.0,30.72,SSE,167,0.0,2.0,50,0.00,,,0.00,0,LWC V2.00 B727,2013-01-09 06:01:00,
2013-01-08 23:06:00,23.5,7.6,30.72,SSE,165,3.0,3.0,50,0.00,,,0.00,0,LWC V2.00 B727,2013-01-09 06:06:00,
2013-01-08 23:11:00,23.1,7.7,30.72,SSE,168,3.0,4.0,51,0.00,,,0.00,0,LWC V2.00 B727,2013-01-09 06:11:00,
2013-01-08 23:16:00,22.6,7.7,30.72,South,169,2.0,3.0,52,0.00,,,0.00,0,LWC V2.00 B727,2013-01-09 06:16:00,
2013-01-08 23:21:00,22.2,7.3,30.72,South,169,2.0,3.0,52,0.00,,,0.00,0,LWC V2.00 B727,2013-01-09 06:21:00,
2013-01-08 23:26:00,21.8,7.3,30.72,SSW,204,2.0,4.0,53,0.00,,,0.00,0,LWC V2.00 B727,2013-01-09 06:26:00,
2013-01-08 23:31:00,21.5,7.1,30.73,SSW,207,3.0,3.0,53,0.00,,,0.00,0,LWC V2.00 B727,2013-01-09 06:31:00,
2013-01-08 23:36:00,21.4,7.0,30.73,SSW,213,4.0,5.0,53,0.00,,,0.00,0,LWC V2.00 B727,2013-01-09 06:36:00,
2013-01-08 23:41:00,21.3,6.9,30.73,South,182,3.0,4.0,53,0.00,,,0.00,0,LWC V2.00 B727,2013-01-09 06:41:00,
2013-01-08 23:46:00,21.2,7.2,30.73,South,183,2.0,4.0,54,0.00,,,0.00,0,LWC V2.00 B727,2013-01-09 06:46:00,
2013-01-08 23:51:00,21.1,7.1,30.73,South,183,4.0,5.0,54,0.00,,,0.00,0,LWC V2.00 B727,2013-01-09 06:51:00,
2013-01-08 23:56:00,21.1,7.1,30.73,South,183,2.0,3.0,54,0.00,,,0.00,0,LWC V2.00 B727,2013-01-09 06:56:00,